Location: Napier
(39.4830°S, 176.9170°E)
Time: 13:35:07
(UTC+13:00)

Terra - Pass Details

Date: 24 January 2019
Orbit: 701 x 703 km, 98.2° (Epoch: 13 October)

Event Time Altitude Azimuth Distance (km) Brightness Sun altitude
Rises 23:08:59 0° 154° (SSE) 3,129 5.5 -23.3°
Reaches altitude 10° 23:11:39 10° 140° (SE) 2,201 4.5 -23.6°
Enters shadow 23:14:06 21° 112° (ESE) 1,576 3.5 -23.9°
